Back to catalog

COSMOS 1348

AliveMilitaryHEO
NORAD 13124·PAYLOAD·🇷🇺 Russia

Launched Apr 7, 1982 from Plesetsk Cosmodrome

Loading…

Next Passes (next 24 hours)

TLE

FreshSource: Space-Track

Epoch: Sep 14, 2026, 09:33 UTC

1 13124U 82029A   26257.39831190  .00000032  00000-0  00000-0 0  9993
2 13124  71.7701 142.3580 4801344 329.6658 246.4929  2.00362270325178

Track COSMOS 1348 in real time with AllMySat

Download on the App Store